Tracking 27382 objects as of 4-Jun-2023
HD Live streaming from Space Station
objects crossing your sky now

FLOCK 4EP 7

Track FLOCK 4EP 7 now!
10-day predictions
FLOCK 4EP 7 is classified as:


NORAD ID: 46814
Int'l Code: 2020-077B
Perigee: 443.8 km
Apogee: 452.8 km
Inclination: 97.4 °
Period: 93.4 minutes
Semi major axis: 6819 km
RCS: Unknown
Launch date: October 28, 2020
Source: United States (US)
Launch site: Rocket Lab Launch Complex (RLLC)
Your satellite tracking list
Your tracking list is empty




NASA's NSSDC Master Catalog

Two Line Element Set (TLE):
1 46814U 20077B   23155.17384942  .00018673  00000-0  44385-3 0  9995
2 46814  97.3689 220.8809 0006593 235.2689 124.7937 15.41690006144222
Source of the keplerian elements: AFSPC